Time,TemperatureF,DewpointF,PressureIn,WindDirection,WindDirectionDegrees,WindSpeedMPH,WindSpeedGustMPH,Humidity,HourlyPrecipIn,Conditions,Clouds,dailyrainin,SoftwareType,DateUTC
2014-04-20 00:00:00,55.6,47.7,30.06,WNW,292,0.0,0.0,75,0.00,,,0.00,WUHU21623XXSP,2014-04-19 14:00:00,
2014-04-20 00:05:00,55.6,47.9,30.06,WNW,292,0.0,0.0,75,0.00,,,0.00,WUHU21623XXSP,2014-04-19 14:05:00,
2014-04-20 00:10:00,55.6,47.9,30.06,WNW,292,0.0,0.0,75,0.00,,,0.00,WUHU21623XXSP,2014-04-19 14:10:00,
2014-04-20 00:15:00,55.6,47.9,30.06,NW,315,0.0,0.0,75,0.00,,,0.00,WUHU21623XXSP,2014-04-19 14:15:00,
2014-04-20 00:20:00,55.5,47.8,30.06,NW,315,0.0,0.0,75,0.00,,,0.00,WUHU21623XXSP,2014-04-19 14:20:00,
2014-04-20 00:25:00,55.5,47.8,30.06,WNW,292,0.0,0.0,75,0.00,,,0.00,WUHU21623XXSP,2014-04-19 14:25:00,
2014-04-20 00:30:00,55.5,47.8,30.06,NW,315,0.0,0.0,75,0.00,,,0.00,WUHU21623XXSP,2014-04-19 14:30:00,
2014-04-20 00:35:00,55.5,47.8,30.06,NW,315,0.0,0.0,75,0.00,,,0.00,WUHU21623XXSP,2014-04-19 14:35:00,
2014-04-20 00:40:00,55.5,47.8,30.06,NW,315,0.0,0.0,75,0.00,,,0.00,WUHU21623XXSP,2014-04-19 14:40:00,
2014-04-20 00:45:00,55.5,47.8,30.06,North,0,0.0,0.0,75,0.00,,,0.00,WUHU21623XXSP,2014-04-19 14:45:00,
2014-04-20 00:50:00,55.5,47.8,30.06,NNE,22,0.0,0.0,75,0.00,,,0.00,WUHU21623XXSP,2014-04-19 14:50:00,
2014-04-20 00:55:00,55.3,47.6,30.06,NW,315,0.0,0.0,75,0.00,,,0.00,WUHU21623XXSP,2014-04-19 14:55:00,
2014-04-20 01:00:00,55.2,47.5,30.06,NW,315,0.0,0.0,75,0.00,,,0.00,WUHU21623XXSP,2014-04-19 15:00:00,
2014-04-20 01:05:00,55.0,47.3,30.06,NW,315,0.0,0.0,75,0.00,,,0.00,WUHU21623XXSP,2014-04-19 15:05:00,
2014-04-20 01:10:00,55.0,47.3,30.06,WNW,292,0.0,0.0,75,0.00,,,0.00,WUHU21623XXSP,2014-04-19 15:10:00,
2014-04-20 01:15:00,55.0,47.3,30.06,WNW,292,0.0,0.0,75,0.00,,,0.00,WUHU21623XXSP,2014-04-19 15:15:00,
2014-04-20 01:20:00,55.0,47.6,30.06,West,270,0.0,0.0,76,0.00,,,0.00,WUHU21623XXSP,2014-04-19 15:20:00,
2014-04-20 01:25:00,55.0,47.6,30.06,NNW,337,0.0,0.0,76,0.00,,,0.00,WUHU21623XXSP,2014-04-19 15:25:00,
2014-04-20 01:30:00,55.0,47.6,30.06,West,270,0.0,0.0,76,0.00,,,0.00,WUHU21623XXSP,2014-04-19 15:30:00,
2014-04-20 01:35:00,55.0,47.6,30.06,NNE,22,0.0,0.0,76,0.00,,,0.00,WUHU21623XXSP,2014-04-19 15:35:00,
2014-04-20 01:40:00,54.9,47.6,30.06,WNW,292,0.0,0.0,76,0.00,,,0.00,WUHU21623XXSP,2014-04-19 15:40:00,
2014-04-20 01:45:00,54.9,47.6,30.06,NW,315,0.0,0.0,76,0.00,,,0.00,WUHU21623XXSP,2014-04-19 15:45:00,
2014-04-20 01:50:00,54.7,47.7,30.06,NW,315,0.0,0.0,77,0.00,,,0.00,WUHU21623XXSP,2014-04-19 15:50:00,
2014-04-20 01:55:00,54.7,47.7,30.07,WNW,292,0.0,0.0,77,0.00,,,0.00,WUHU21623XXSP,2014-04-19 15:55:00,
2014-04-20 02:00:00,54.9,47.9,30.06,NW,315,0.0,0.0,77,0.00,,,0.00,WUHU21623XXSP,2014-04-19 16:00:00,
2014-04-20 02:05:00,54.7,47.7,30.06,WNW,292,0.0,0.0,77,0.00,,,0.00,WUHU21623XXSP,2014-04-19 16:05:00,
2014-04-20 02:10:00,54.9,47.9,30.06,NNW,337,0.0,0.0,77,0.00,,,0.00,WUHU21623XXSP,2014-04-19 16:10:00,
2014-04-20 02:15:00,54.7,47.7,30.06,North,0,0.0,0.0,77,0.00,,,0.00,WUHU21623XXSP,2014-04-19 16:15:00,
2014-04-20 02:20:00,54.7,47.7,30.05,NW,315,0.0,0.0,77,0.00,,,0.00,WUHU21623XXSP,2014-04-19 16:20:00,
2014-04-20 02:25:00,54.7,47.7,30.05,NNW,337,0.0,0.0,77,0.00,,,0.00,WUHU21623XXSP,2014-04-19 16:25:00,
2014-04-20 02:30:00,54.7,47.7,30.05,WSW,247,0.0,0.0,77,0.00,,,0.00,WUHU21623XXSP,2014-04-19 16:30:00,
2014-04-20 02:35:00,54.7,47.7,30.05,North,0,0.0,0.0,77,0.00,,,0.00,WUHU21623XXSP,2014-04-19 16:35:00,
2014-04-20 02:40:00,54.6,47.7,30.05,West,270,0.0,0.0,77,0.00,,,0.00,WUHU21623XXSP,2014-04-19 16:40:00,
2014-04-20 02:45:00,54.6,47.6,30.05,NW,315,0.0,0.0,77,0.00,,,0.00,WUHU21623XXSP,2014-04-19 16:45:00,
2014-04-20 02:50:00,54.6,47.6,30.05,NW,315,0.0,0.0,77,0.00,,,0.00,WUHU21623XXSP,2014-04-19 16:50:00,
2014-04-20 02:55:00,54.6,47.6,30.05,NW,315,0.0,0.0,77,0.00,,,0.00,WUHU21623XXSP,2014-04-19 16:55:00,
2014-04-20 03:00:00,54.6,47.6,30.05,NW,315,0.0,0.0,77,0.00,,,0.00,WUHU21623XXSP,2014-04-19 17:00:00,
2014-04-20 03:05:00,54.6,47.6,30.05,NNW,337,0.0,0.0,77,0.00,,,0.00,WUHU21623XXSP,2014-04-19 17:05:00,
2014-04-20 03:10:00,54.6,47.6,30.05,NW,315,0.0,0.0,77,0.00,,,0.00,WUHU21623XXSP,2014-04-19 17:10:00,
2014-04-20 03:15:00,54.6,47.6,30.05,WNW,292,0.0,0.0,77,0.00,,,0.00,WUHU21623XXSP,2014-04-19 17:15:00,
2014-04-20 03:20:00,54.6,47.6,30.06,NW,315,0.0,0.0,77,0.00,,,0.00,WUHU21623XXSP,2014-04-19 17:20:00,
2014-04-20 03:25:00,54.5,47.5,30.05,WNW,292,0.0,0.0,77,0.00,,,0.00,WUHU21623XXSP,2014-04-19 17:25:00,
2014-04-20 03:30:00,54.5,47.5,30.05,NW,315,0.0,0.0,77,0.00,,,0.00,WUHU21623XXSP,2014-04-19 17:30:00,
2014-04-20 03:35:00,54.5,47.5,30.05,NNW,337,0.0,0.0,77,0.00,,,0.00,WUHU21623XXSP,2014-04-19 17:35:00,
2014-04-20 03:40:00,54.3,47.3,30.05,WNW,292,0.0,0.0,77,0.00,,,0.00,WUHU21623XXSP,2014-04-19 17:40:00,
2014-04-20 03:45:00,54.3,47.7,30.05,North,0,0.0,0.0,78,0.00,,,0.00,WUHU21623XXSP,2014-04-19 17:45:00,
2014-04-20 03:50:00,54.3,47.7,30.06,WNW,292,0.0,0.0,78,0.00,,,0.00,WUHU21623XXSP,2014-04-19 17:50:00,
2014-04-20 03:55:00,54.3,47.7,30.05,West,270,0.0,0.0,78,0.00,,,0.00,WUHU21623XXSP,2014-04-19 17:55:00,
2014-04-20 04:00:00,54.3,47.7,30.05,NNW,337,0.0,0.0,78,0.00,,,0.00,WUHU21623XXSP,2014-04-19 18:00:00,
2014-04-20 04:05:00,54.3,47.7,30.05,SW,225,0.0,0.0,78,0.00,,,0.00,WUHU21623XXSP,2014-04-19 18:05:00,
2014-04-20 04:10:00,54.3,47.7,30.05,WSW,247,0.0,0.0,78,0.00,,,0.00,WUHU21623XXSP,2014-04-19 18:10:00,
2014-04-20 04:15:00,54.3,47.7,30.05,NW,315,0.0,0.0,78,0.00,,,0.00,WUHU21623XXSP,2014-04-19 18:15:00,
2014-04-20 04:20:00,54.3,47.7,30.06,WSW,247,0.0,0.0,78,0.00,,,0.00,WUHU21623XXSP,2014-04-19 18:20:00,
2014-04-20 04:25:00,54.3,47.7,30.05,West,270,0.0,0.0,78,0.00,,,0.00,WUHU21623XXSP,2014-04-19 18:25:00,
2014-04-20 04:30:00,54.3,47.7,30.05,WSW,247,0.0,0.0,78,0.00,,,0.00,WUHU21623XXSP,2014-04-19 18:30:00,
2014-04-20 04:35:00,54.3,47.7,30.05,West,270,0.0,0.0,78,0.00,,,0.00,WUHU21623XXSP,2014-04-19 18:35:00,
2014-04-20 04:40:00,54.1,47.5,30.05,West,270,0.0,0.0,78,0.00,,,0.00,WUHU21623XXSP,2014-04-19 18:40:00,
2014-04-20 04:45:00,54.1,47.5,30.05,West,270,0.0,0.0,78,0.00,,,0.00,WUHU21623XXSP,2014-04-19 18:45:00,
2014-04-20 04:50:00,54.1,47.5,30.05,West,270,0.0,0.0,78,0.00,,,0.00,WUHU21623XXSP,2014-04-19 18:50:00,
2014-04-20 04:55:00,54.2,47.5,30.05,West,270,0.0,0.0,78,0.00,,,0.00,WUHU21623XXSP,2014-04-19 18:55:00,
2014-04-20 05:00:00,54.2,47.5,30.05,West,270,0.0,0.0,78,0.00,,,0.00,WUHU21623XXSP,2014-04-19 19:00:00,
2014-04-20 05:05:00,54.2,47.5,30.05,West,270,0.0,0.0,78,0.00,,,0.00,WUHU21623XXSP,2014-04-19 19:05:00,
2014-04-20 05:10:00,54.0,47.3,30.06,WNW,292,0.0,0.0,78,0.00,,,0.00,WUHU21623XXSP,2014-04-19 19:10:00,
2014-04-20 05:15:00,54.0,47.3,30.06,WNW,292,0.0,0.0,78,0.00,,,0.00,WUHU21623XXSP,2014-04-19 19:15:00,
2014-04-20 05:20:00,54.0,47.3,30.06,WNW,292,0.0,0.0,78,0.00,,,0.00,WUHU21623XXSP,2014-04-19 19:20:00,
2014-04-20 05:25:00,54.0,47.4,30.06,NW,315,0.0,0.0,78,0.00,,,0.00,WUHU21623XXSP,2014-04-19 19:25:00,
2014-04-20 05:30:00,54.0,47.4,30.06,WNW,292,0.0,0.0,78,0.00,,,0.00,WUHU21623XXSP,2014-04-19 19:30:00,
2014-04-20 05:35:00,54.0,47.4,30.06,NNW,337,0.0,0.0,78,0.00,,,0.00,WUHU21623XXSP,2014-04-19 19:35:00,
2014-04-20 05:40:00,54.0,47.4,30.06,NNW,337,0.0,0.0,78,0.00,,,0.00,WUHU21623XXSP,2014-04-19 19:40:00,
2014-04-20 05:45:00,54.0,47.4,30.06,North,0,0.0,0.0,78,0.00,,,0.00,WUHU21623XXSP,2014-04-19 19:45:00,
2014-04-20 05:50:00,54.0,47.4,30.06,NNW,337,0.0,0.0,78,0.00,,,0.00,WUHU21623XXSP,2014-04-19 19:50:00,
2014-04-20 05:55:00,54.1,47.7,30.06,WSW,247,0.0,0.0,79,0.00,,,0.00,WUHU21623XXSP,2014-04-19 19:55:00,
2014-04-20 06:00:00,54.1,47.8,30.06,NNW,337,0.0,0.0,79,0.00,,,0.00,WUHU21623XXSP,2014-04-19 20:00:00,
2014-04-20 06:05:00,53.9,47.6,30.07,NW,315,0.0,0.0,79,0.00,,,0.00,WUHU21623XXSP,2014-04-19 20:05:00,
2014-04-20 06:10:00,53.9,47.6,30.07,NW,315,0.0,0.0,79,0.00,,,0.00,WUHU21623XXSP,2014-04-19 20:10:00,
2014-04-20 06:15:00,53.9,47.6,30.07,NNW,337,0.0,0.0,79,0.00,,,0.00,WUHU21623XXSP,2014-04-19 20:15:00,
2014-04-20 06:20:00,53.9,47.6,30.07,WNW,292,0.0,0.0,79,0.00,,,0.00,WUHU21623XXSP,2014-04-19 20:20:00,
2014-04-20 06:25:00,53.9,47.9,30.07,NW,315,0.0,0.0,80,0.00,,,0.00,WUHU21623XXSP,2014-04-19 20:25:00,
2014-04-20 06:30:00,53.9,48.0,30.07,NW,315,0.0,0.0,80,0.00,,,0.00,WUHU21623XXSP,2014-04-19 20:30:00,
2014-04-20 06:35:00,54.0,48.0,30.07,NW,315,0.0,0.0,80,0.00,,,0.00,WUHU21623XXSP,2014-04-19 20:35:00,
2014-04-20 06:40:00,54.0,48.0,30.07,NNW,337,0.0,0.0,80,0.00,,,0.00,WUHU21623XXSP,2014-04-19 20:40:00,
2014-04-20 06:45:00,54.0,48.0,30.07,WNW,292,0.0,0.0,80,0.00,,,0.00,WUHU21623XXSP,2014-04-19 20:45:00,
2014-04-20 06:50:00,54.0,47.7,30.07,WNW,292,0.0,0.0,79,0.00,,,0.00,WUHU21623XXSP,2014-04-19 20:50:00,
2014-04-20 06:55:00,54.2,47.9,30.07,NNW,337,0.0,0.0,79,0.00,,,0.00,WUHU21623XXSP,2014-04-19 20:55:00,
2014-04-20 07:00:00,54.2,47.9,30.07,NNW,337,0.0,0.0,79,0.00,,,0.00,WUHU21623XXSP,2014-04-19 21:00:00,
2014-04-20 07:05:00,54.4,48.1,30.07,NW,315,0.0,0.0,79,0.00,,,0.00,WUHU21623XXSP,2014-04-19 21:05:00,
2014-04-20 07:10:00,54.4,47.8,30.08,NW,315,0.0,0.0,78,0.00,,,0.00,WUHU21623XXSP,2014-04-19 21:10:00,
2014-04-20 07:15:00,54.7,48.0,30.07,NW,315,0.0,0.0,78,0.00,,,0.00,WUHU21623XXSP,2014-04-19 21:15:00,
2014-04-20 07:20:00,54.7,48.0,30.07,NW,315,0.0,0.0,78,0.00,,,0.00,WUHU21623XXSP,2014-04-19 21:20:00,
2014-04-20 07:25:00,54.7,48.0,30.07,NW,315,0.0,0.0,78,0.00,,,0.00,WUHU21623XXSP,2014-04-19 21:25:00,
2014-04-20 07:30:00,54.7,47.6,30.07,WNW,292,0.0,0.0,77,0.00,,,0.00,WUHU21623XXSP,2014-04-19 21:30:00,
2014-04-20 07:35:00,54.9,47.8,30.07,WNW,292,0.0,0.0,77,0.00,,,0.00,WUHU21623XXSP,2014-04-19 21:35:00,
2014-04-20 07:40:00,54.9,47.8,30.07,NW,315,0.0,0.0,77,0.00,,,0.00,WUHU21623XXSP,2014-04-19 21:40:00,
2014-04-20 07:45:00,55.0,47.9,30.07,NNW,337,0.0,0.0,77,0.00,,,0.00,WUHU21623XXSP,2014-04-19 21:45:00,
2014-04-20 07:50:00,55.0,47.9,30.07,NNW,337,0.0,0.0,77,0.00,,,0.00,WUHU21623XXSP,2014-04-19 21:50:00,
2014-04-20 07:55:00,55.0,47.9,30.06,NW,315,0.0,0.0,77,0.00,,,0.00,WUHU21623XXSP,2014-04-19 21:55:00,
2014-04-20 08:00:00,55.0,47.9,30.07,NNW,337,0.0,0.0,77,0.00,,,0.00,WUHU21623XXSP,2014-04-19 22:00:00,
2014-04-20 08:05:00,55.0,47.9,30.07,NW,315,0.0,0.0,77,0.00,,,0.00,WUHU21623XXSP,2014-04-19 22:05:00,
2014-04-20 08:10:00,55.2,47.7,30.07,North,0,0.0,0.0,76,0.00,,,0.00,WUHU21623XXSP,2014-04-19 22:10:00,
2014-04-20 08:15:00,55.2,47.7,30.07,NW,315,0.0,0.0,76,0.00,,,0.00,WUHU21623XXSP,2014-04-19 22:15:00,
2014-04-20 08:20:00,55.4,47.9,30.07,WNW,292,0.0,0.0,76,0.00,,,0.00,WUHU21623XXSP,2014-04-19 22:20:00,
2014-04-20 08:25:00,55.8,47.9,30.07,West,270,0.0,0.0,75,0.00,,,0.00,WUHU21623XXSP,2014-04-19 22:25:00,
2014-04-20 08:30:00,55.8,47.9,30.07,West,270,0.0,0.0,75,0.00,,,0.00,WUHU21623XXSP,2014-04-19 22:30:00,
2014-04-20 08:35:00,56.1,47.9,30.07,North,0,0.0,0.0,74,0.00,,,0.00,WUHU21623XXSP,2014-04-19 22:35:00,
2014-04-20 08:40:00,56.5,47.9,30.07,North,0,0.0,0.0,73,0.00,,,0.00,WUHU21623XXSP,2014-04-19 22:40:00,
2014-04-20 08:45:00,56.8,48.2,30.07,North,0,0.0,0.0,73,0.00,,,0.00,WUHU21623XXSP,2014-04-19 22:45:00,
2014-04-20 08:50:00,57.4,48.4,30.07,North,0,0.0,0.0,72,0.00,,,0.00,WUHU21623XXSP,2014-04-19 22:50:00,
2014-04-20 08:55:00,57.9,48.6,30.08,North,0,0.0,0.0,71,0.00,,,0.00,WUHU21623XXSP,2014-04-19 22:55:00,
2014-04-20 09:01:00,58.1,48.0,30.07,North,0,0.0,0.0,69,0.00,,,0.00,WUHU21623XXSP,2014-04-19 23:01:00,
2014-04-20 09:06:00,58.6,48.5,30.07,North,0,0.0,0.0,69,0.00,,,0.00,WUHU21623XXSP,2014-04-19 23:06:00,
2014-04-20 09:11:00,59.2,48.6,30.07,North,0,0.0,0.0,68,0.00,,,0.00,WUHU21623XXSP,2014-04-19 23:11:00,
2014-04-20 09:16:00,59.5,48.6,30.07,North,0,0.0,0.0,67,0.00,,,0.00,WUHU21623XXSP,2014-04-19 23:16:00,
2014-04-20 09:21:00,59.5,47.3,30.07,North,0,0.0,0.0,64,0.00,,,0.00,WUHU21623XXSP,2014-04-19 23:21:00,
2014-04-20 09:26:00,59.7,47.1,30.07,WNW,292,8.0,8.0,63,0.00,,,0.00,WUHU21623XXSP,2014-04-19 23:26:00,
2014-04-20 09:31:00,60.1,46.2,30.08,WNW,292,1.0,8.0,60,0.00,,,0.00,WUHU21623XXSP,2014-04-19 23:31:00,
2014-04-20 09:36:00,61.0,46.1,30.07,WSW,247,2.0,8.0,58,0.00,,,0.00,WUHU21623XXSP,2014-04-19 23:36:00,
2014-04-20 09:41:00,61.5,46.1,30.07,WNW,292,7.0,7.0,57,0.00,,,0.00,WUHU21623XXSP,2014-04-19 23:41:00,
2014-04-20 09:46:00,61.9,45.5,30.07,SW,225,2.0,7.0,55,0.00,,,0.00,WUHU21623XXSP,2014-04-19 23:46:00,
2014-04-20 09:51:00,62.4,45.0,30.07,West,270,3.0,8.0,53,0.00,,,0.00,WUHU21623XXSP,2014-04-19 23:51:00,
2014-04-20 09:56:00,63.0,46.0,30.07,NW,315,5.0,8.0,54,0.00,,,0.00,WUHU21623XXSP,2014-04-19 23:56:00,
2014-04-20 10:01:00,63.3,44.8,30.07,West,266,7.0,7.0,51,0.00,,,0.00,WUHU21623XXSP,2014-04-20 00:01:00,
2014-04-20 10:06:00,63.7,45.2,30.07,West,270,4.0,7.0,51,0.00,,,0.00,WUHU21623XXSP,2014-04-20 00:06:00,
2014-04-20 10:11:00,64.2,46.1,30.07,NW,315,4.0,7.0,52,0.00,,,0.00,WUHU21623XXSP,2014-04-20 00:11:00,